Regional Weather Roundup
Issued by NWS Newport/Morehead, NC

Current Version | Previous Version | Text Only | Print | Product List | Glossary On
Versions: 1 2 3 4 5 6 7 8 9 10 11 12 13 14 15 16 17 18 19 20 21 22 23 24 25 26 27 28 29 30 31 32 33 34 35 36 37 38 39 40 41 42 43 44 45 46 47 48 49 50
000
ASUS42 KMHX 231622
RWRMHX
WEATHER ROUNDUP FOR EASTERN NORTH CAROLINA
NATIONAL WEATHER SERVICE NEWPORT/MOREHEAD CITY NC
1200 PM EDT WED APR 23 2014

NOTE: "FAIR" INDICATES FEW OR NO CLOUDS BELOW 12,000 FEET
WITH NO SIGNIFICANT WEATHER AND/OR OBSTRUCTIONS TO VISIBILITY

NCZ015>017-031-032-045>047-102-103-231700-
NORTH COAST

CITY           SKY/WX    TMP DP  RH WIND       PRES   REMARKS
EDENTON        SUNNY     66  42  42 W10G16    29.80F
ELIZABETH CITY NOT AVBL
KITTY HAWK     SUNNY     57  39  50 N12G18    29.78S
MANTEO         SUNNY     60  41  49 NE10G17   29.80S

$$

NCZ045>047-081-094-103-104-231700-
CENTRAL COAST

CITY           SKY/WX    TMP DP  RH WIND       PRES   REMARKS
FRISCO         SUNNY     62  41  46 NE14G21   29.79S HAZE
SWANQUARTER      N/A     66 N/A N/A NW3G16    29.77S

$$

NCZ095-097-098-100-101-231700-
SOUTHERN COAST

CITY           SKY/WX    TMP DP  RH WIND       PRES   REMARKS
BEAUFORT       SUNNY     72  52  49 VRB3      29.79S
CEDAR ISLAND     N/A     64 N/A N/A E3        29.82S
JACKSONVILLE   SUNNY     72  46  39 NW16      29.80S
NEWPORT          N/A     72  50  46 NW10        N/A
PINEY ISLAND   SUNNY     67  55  65 NE8       29.80R
WILMINGTON     SUNNY     76  41  28 W14       29.81F


$$

NCZ011>013-027>030-043-044-078>080-089-090>093-098-231700-
COASTAL PLAIN

CITY           SKY/WX    TMP DP  RH WIND       PRES   REMARKS
AHOSKIE        SUNNY     64  41  44 NW7       29.82S
CLINTON        SUNNY     70  39  31 NW12G20   29.84S
ELIZABETHTOWN  SUNNY     73  35  24 NW12G17   29.84S
GOLDSBORO      SUNNY     69  34  27 W13G22    29.81S
GREENVILLE     MOSUNNY   68  45  42 N9        29.84S
HAVELOCK       MOSUNNY   72  49  44 N16       29.80S
KENANSVILLE      N/A     70  33  25 NW14      29.83S
KINSTON        SUNNY     70  34  26 W13G18    29.83S
NEW BERN       MOSUNNY   73  49  42 NW8       29.80S
RICHLANDS      SUNNY     72  66  83 NW12      29.82S
ROANOKE RAPIDS NOT AVBL
ROCKY MOUNT    SUNNY     68  33  27 NW16G31   29.83S
WASHINGTON     MOSUNNY   68  44  42 NW12      29.81S
WHITEVILLE     SUNNY     73  42  31 W6        29.83F

$$

AMZ130-135-150-152-154-156-158-170-250-252-270-ANZ085-086-088-633-658-670-231700-
MARINE OBSERVATIONS

STATION/POSITION TIME  TEMP    WIND        PRES    WAVE   SWELL
                       AIR SEA DIR/SP/G            HT/PER HT/PER
                 (UTC) (F)     (DEG/KT/KT) (MB)    (FT/S) (FT/S)
CHESAPEAKE LIGHT 1600   54     340/ 19/ 20 1008.8
BUOY 44014       1600   51 49  330/ 14/ 16 1007.9    4/ 5   2/ 9
DUCK             1600   53 50   20/ 16/ 16 1007.5
2E DUCK          1600      50                N/A     3/ 4
OREGON INLET     1600   56 56  360/ 11/ 15 1008.9
BUOY 44095       1600      51                N/A     4/ 9
HATTERAS CG      1600   58 59   30/ 11/ 16 1009.2
DIAMOND BUOY     1600   59 75  360/ 21/ 27 1008.4    6/ 6   2/ 9
CAPE LOOKOUT     1600   60      80/ 12/ 13 1008.9
BEAUFORT LAB     1600   63 61  130/ 10/ 12 1008.1
30 SE NEW RIVER  1600   66 69  330/  8/ 10 1009.6    3/ 6   2/ 6
5 SE WRIGHTSVILL 1600   67 61  320/  6/  6 1009.7
FRYING PAN BUOY  1600   65 68  270/ 12/ 14 1010.3    3/ 8   2/ 8
BUOY 41001       NOT AVBL
BUOY 41002       NOT AVBL
BUOY 41004       1600   65 68  270/  8/ 10 1011.6    2/ 8   2/ 8

$$



USA.gov is the U.S. government's official web portal to all federal, state and local government web resources and services.